Location: Crotone
(39.0830°N, 17.1330°E)
Time: 08:59:04
(UTC+01:00)

ISS - Visible Passes

Search period start: 22 January 2019 00:00
Search period end: 01 February 2019 00:00
Orbit: 404 x 410 km, 51.6° (Epoch: 23 January)

Date Brightness Start Highest point End Pass type
(mag) Time Alt. Az. Time Alt. Az. Time Alt. Az.
22 Jan -2.6 17:52:37 10° SSW 17:55:30 28° SE 17:57:16 17° E visible
22 Jan -0.8 19:28:59 10° W 19:30:01 17° W 19:30:01 17° W visible
23 Jan -3.3 18:37:19 10° WSW 18:40:33 54° NW 18:41:04 47° N visible
24 Jan -3.8 17:45:54 10° SW 17:49:11 79° SE 17:52:02 13° NE visible
24 Jan -0.9 19:23:43 10° WNW 19:24:46 15° NW 19:24:46 15° NW visible
25 Jan -2.0 18:31:41 10° W 18:34:29 25° NNW 18:35:40 21° N visible
26 Jan -2.8 17:39:51 10° WSW 17:42:59 41° NNW 17:46:09 10° NE visible
26 Jan -0.8 19:18:48 10° NW 19:19:13 11° NNW 19:19:13 11° NNW visible
27 Jan -1.4 18:26:28 10° WNW 18:28:34 16° NNW 18:29:59 13° N visible
28 Jan -1.8 17:34:18 10° WNW 17:36:55 21° NNW 17:39:33 10° NNE visible
29 Jan -1.2 18:21:37 10° NNW 18:22:42 11° N 18:23:45 10° N visible
